Change the Weather History Date:

Wednesday, July 24, 2013

  Actual Average Record
Temperature  
Mean Temperature 82 °F -  
Max Temperature 90 °F 89 °F 96 °F (2011)
Min Temperature 75 °F 71 °F 70 °F (2001)
Cooling Degree Days 17    
Growing Degree Days 32 (Base 50)    
Moisture  
Dew Point 73 °F    
Average Humidity 72    
Maximum Humidity 91    
Minimum Humidity 53    
Precipitation  
Precipitation 0.00 in - - ()
Sea Level Pressure  
Sea Level Pressure 30.00 in    
Wind  
Wind Speed 6 mph (West)    
Max Wind Speed 18 mph    
Max Gust Speed 21 mph    
Visibility 10 miles    
Events      
Averages and records for this station are not official NWS values.
T = Trace of Precipitation, MM = Missing Value Source: NWS Daily Summary

Daily Weather History Graph

Daily Weather History Graph

Search for Another Location

Airport or City:

Trip Planner

Search our weather history database for the weather conditions in past years. The results will help you decide how hot, cold, wet, or windy it might be!

Date:

Astronomy

Jul. 24, 2013 Rise Set
Actual Time 6:48 AM EDT 8:20 PM EDT
Civil Twilight 6:22 AM EDT 8:45 PM EDT
Nautical Twilight 5:52 AM EDT 9:16 PM EDT
Astronomical Twilight 5:20 AM EDT 9:47 PM EDT
Moon 9:46 PM EDT (7/24) 8:49 AM EDT (7/24)
Length of Visible Light 14h 22m
Length of Day
13h 31m
Waning Gibbous, 95% of the Moon is Illuminated
Jul 24
Waning Gibbous
Jul 29
Last Quarter
Aug 6
New
Aug 14
First Quarter
Aug 20
Full

Hourly Weather History & Observations

Time (EDT) Temp. Heat Index Dew Point Humidity Pressure Visibility Wind Dir Wind Speed Gust Speed Precip Events Conditions
12:53 AM 80.1 °F 84.5 °F 73.9 °F 81% 30.05 in 10.0 mi West 3.5 mph - N/A   Partly Cloudy
1:53 AM 79.0 °F - 73.9 °F 84% 30.03 in 10.0 mi WSW 3.5 mph - N/A   Clear
2:53 AM 79.0 °F - 73.9 °F 84% 30.00 in 10.0 mi SW 3.5 mph - N/A   Clear
3:53 AM 77.0 °F - 73.9 °F 90% 29.98 in 10.0 mi SW 3.5 mph - N/A   Clear
4:53 AM 77.0 °F - 73.0 °F 88% 29.98 in 10.0 mi Calm Calm - N/A   Clear
5:53 AM 78.1 °F - 73.0 °F 84% 29.99 in 10.0 mi Calm Calm - N/A   Clear
6:53 AM 75.9 °F - 73.0 °F 91% 29.99 in 10.0 mi Calm Calm - N/A   Clear
7:53 AM 80.1 °F 84.5 °F 73.9 °F 81% 30.00 in 10.0 mi WSW 3.5 mph - N/A   Clear
8:53 AM 84.0 °F 91.2 °F 73.9 °F 72% 30.01 in 10.0 mi West 8.1 mph - N/A   Clear
9:53 AM 86.0 °F 92.2 °F 72.0 °F 63% 30.02 in 10.0 mi West 12.7 mph - N/A   Clear
10:53 AM 87.1 °F 94.5 °F 73.0 °F 63% 30.03 in 10.0 mi WSW 10.4 mph - N/A   Partly Cloudy
11:53 AM 88.0 °F 94.7 °F 72.0 °F 59% 30.03 in 10.0 mi West 13.8 mph - N/A   Partly Cloudy
12:53 PM 88.0 °F 94.7 °F 72.0 °F 59% 30.02 in 10.0 mi West 15.0 mph - N/A   Scattered Clouds
1:53 PM 89.1 °F 96.0 °F 72.0 °F 57% 30.01 in 10.0 mi West 18.4 mph - N/A   Partly Cloudy
2:53 PM 89.1 °F 96.0 °F 72.0 °F 57% 30.00 in 10.0 mi West 12.7 mph 20.7 mph N/A   Partly Cloudy
3:53 PM 89.1 °F 94.1 °F 70.0 °F 53% 29.98 in 10.0 mi West 12.7 mph - N/A   Partly Cloudy
4:53 PM 88.0 °F 94.7 °F 72.0 °F 59% 29.96 in 10.0 mi West 13.8 mph - N/A   Scattered Clouds
5:53 PM 86.0 °F 90.7 °F 70.0 °F 59% 29.96 in 10.0 mi West 10.4 mph - N/A   Partly Cloudy
6:53 PM 84.9 °F 90.1 °F 71.1 °F 63% 29.96 in 10.0 mi West 13.8 mph - N/A   Scattered Clouds
7:53 PM 82.9 °F 88.8 °F 73.0 °F 72% 29.97 in 10.0 mi West 9.2 mph - N/A   Partly Cloudy
8:53 PM 82.9 °F 88.8 °F 73.0 °F 72% 29.99 in 10.0 mi West 9.2 mph - N/A   Partly Cloudy
9:53 PM 82.0 °F 87.9 °F 73.9 °F 76% 29.99 in 10.0 mi West 8.1 mph - N/A   Clear
10:53 PM 81.0 °F 86.2 °F 73.9 °F 79% 29.99 in 10.0 mi West 5.8 mph - N/A   Clear
11:53 PM 81.0 °F 86.2 °F 73.9 °F 79% 29.98 in 10.0 mi West 5.8 mph - N/A   Clear